Flag for Cuba Weather past 2 weeks in Holguín, Cuba

Now
79 °F

Mostly cloudy.


Feels Like: 82 °F
Forecast: 76 / 91 °F
Wind: 6 mph from East

Location: Holguin Civ / Mil

Current Time: Aug 29, 2015 at 9:50:45 PM

Latest Report: Aug 29, 2015 at 8:50 PM


Visibility: 6 mi

Pressure: 29.95 "Hg

Humidity: 79%

Dew point: 72 °F

Location of HolguínLocation

Historic Weather in Holguín — Graph

°F

Holguín temperature yesterday

Maximum temperature yesterday: 93 °F (at 2:50 PM)
Minimum temperature yesterday: 75 °F (at 4:50 AM)
Average temperature yesterday: 83 °F

Past Weeks' High & Low Weather Summary

 TemperatureHumidityPressure
High97 °F (Aug 24, 2:50 PM)94% (Aug 15, 2:51 AM)30.04 "Hg (Aug 15, 2:51 AM)
Low72 °F (Aug 19, 4:50 AM)32% (Aug 21, 3:50 PM)29.83 "Hg (Aug 24, 3:50 PM)
Average82 °F72%29.95 "Hg
* Reported Aug 14 8:50 PM — Aug 29 8:50 PM, Holguín, Weather by CustomWeather, © 2015

Note: Actual official high and low records may vary slightly from our data, if they occured in-between our weather recording intervals... More about our weather records

Advertising

Holguín weather history for previous 24 hours

 ConditionsComfort  
Time TempWeatherWind HumidityBarometerVisibility
8:50 PM
Sat, Aug 29
79 °FMostly cloudy.6 mph79%29.95 "Hg6 mi
7:50 PM81 °FBroken clouds.7 mph74%29.95 "HgN/A
6:50 PM81 °FOvercast.8 mph74%29.92 "Hg6 mi
5:50 PM81 °FMore clouds than sun.8 mph74%29.95 "Hg6 mi
4:50 PM81 °FLight rain. Broken clouds.9 mph74%29.92 "Hg5 mi
3:50 PM81 °FLight rain. Broken clouds.9 mph79%29.92 "Hg5 mi
2:50 PM81 °FLight rain. Partly sunny.8 mph79%N/A5 mi
1:50 PM82 °FLight rain. Partly sunny.9 mph70%N/A5 mi
12:50 PM82 °FPartly sunny.15 mph62%29.98 "Hg5 mi
11:51 AM81 °FPartly sunny.16 mph74%29.98 "Hg6 mi
10:50 AM82 °FPartly sunny.17 mph70%29.98 "Hg6 mi
9:50 AM82 °FScattered clouds.14 mph70%29.95 "Hg6 mi
8:50 AM82 °FPassing clouds.9 mph79%29.92 "Hg6 mi
7:55 AM79 °FPartly sunny.7 mph89%29.92 "Hg6 mi
6:52 AM79 °FFog.6 mph84%29.89 "Hg5 mi
5:52 AM77 °FFog.3 mph89%29.89 "Hg5 mi
4:53 AM77 °FPassing clouds.2 mph89%29.89 "Hg6 mi
3:52 AM79 °FLight rain. Partly cloudy.3 mph84%N/A4 mi
2:50 AM81 °FPassing clouds.9 mph79%29.89 "Hg6 mi
1:50 AM79 °FPassing clouds.7 mph84%29.92 "HgN/A
12:50 AM79 °FClear.5 mph84%29.92 "Hg10 mi
11:50 PM
Fri, Aug 28
79 °FPassing clouds.5 mph84%29.92 "HgN/A
10:50 PM81 °FPassing clouds.8 mph79%29.95 "HgN/A
9:50 PM81 °FPassing clouds.7 mph84%29.92 "HgN/A
Weather by CustomWeather, © 2015

See weather overviewHow to use our weather pages